Regional Weather Roundup
Issued by NWS

Home | Current Version | Previous Version | Graphics & Text | Print | Product List | Glossary On
Versions: 1 2 3 4 5 6 7 8 9 10 11 12 13 14 15 16 17 18 19 20 21 22 23 24 25 26 27 28 29 30 31 32 33 34 35 36 37 38 39 40 41 42 43 44 45 46 47 48 49 50
256
ASUS43 KLOT 301908
RWRIL

ILLINOIS REGIONAL WEATHER ROUNDUP
NATIONAL WEATHER SERVICE CHICAGO/ROMEOVILLE IL
200 PM CDT SUN APR 30 2017

NOTE: "FAIR" INDICATES FEW OR NO CLOUDS BELOW 12,000 FEET WITH NO
SIGNIFICANT WEATHER AND/OR OBSTRUCTIONS TO VISIBILITY.

* THESE STATIONS ARE NOT UNDER NWS QUALITY CONTROL. THEY ALSO MAY NOT
  REPORT WEATHER SUCH AS PRECIPITATION OR FOG.

ILZ001-002-007-009-015-016-024-302000-
NORTHWEST ILLINOIS

CITY           SKY/WX    TMP DP  RH WIND       PRES   REMARKS
MOLINE         LGT RAIN  47  44  90 E14       29.75R FOG
STERLING*      LGT RAIN  47  45  93 E17       29.78R FOG
SAVANNA*       CLOUDY    48  43  84 NE15G22   29.78R
$$

ILZ003-004-008-010-011-017-018-302000-
NORTH CENTRAL ILLINOIS

CITY           SKY/WX    TMP DP  RH WIND       PRES   REMARKS
ROCKFORD       CLOUDY    48  43  82 NE20G28   29.80F
FREEPORT*      CLOUDY    45  42  91 NE20G25   29.80F
ROCHELLE*      CLOUDY    47  45  92 NE16      29.80R
DE KALB*       CLOUDY    47  45  93 NE18      29.80R
PERU*          CLOUDY    48  45  90 NE17      29.77S
$$

ILZ005-006-012>014-019>023-302000-
NORTHEAST ILLINOIS

CITY           SKY/WX    TMP DP  RH WIND       PRES   REMARKS
CHICAGO-OHARE  DRIZZLE   45  43  93 NE17      29.82R
CHICAGO-MIDWAY CLOUDY    47  45  93 N17G24    29.80S
AURORA         CLOUDY    49  47  93 NE15      29.79S
LANSING*       CLOUDY    47  47 100 N7        29.82R
JOLIET*        CLOUDY    50  48  95 NE9       29.79F
WAUKEGAN       LGT RAIN  43  43 100 N15G24    29.81F VSB 1
DUPAGE AIRPORT CLOUDY    47  47 100 E14       29.80R FOG
KANKAKEE*      CLOUDY    55  55  98 NE9       29.79R
WHEELING       CLOUDY    44  44 100 N13       29.82F FOG
MORRIS*        CLOUDY    50  47  90 NE7       29.77F
ROMEOVILLE*    CLOUDY    47  47 100 NE12      29.80R
NORTHERLY ISL    N/A     44  42  93 MISG        N/A
$$

LMZ740>746-302000-
SOUTHERN LAKE MICHIGAN

STATION/POSITION SKY/WX   TEMP    WIND        PRES    VSBY  WAVE
                          AIR SEA DIR/SP/G                  HT/PER
                          (F)     (DEG/KT/KT) (MB)    (MI)  (FT/S)
SOUTHERN BUOY              41 41  360/ 12/ 14 1011.9          5/ 6
HARRISON CRIB              44     360/ 17/ 20   N/A
BURNHAM HARBOR             44     340/ 16/ 17   N/A
CALUMET HARBOR             44     340/ 12/ 16 1009.2R
BURNS HARBOR               45     360/  5/  6 1010.2R
MICHIGAN CITY              46     360/  5/  5   N/A
MICHIGAN CITY 6N           44 49                N/A           3/ 5
ST. JOSEPH                 46 46  330/  6/  8 1009.8          2/ 5
$$

ILZ025>027-034>036-040-047-049-050-058-095>099-302000-
WEST-CENTRAL ILLINOIS

CITY           SKY/WX    TMP DP  RH WIND       PRES   REMARKS
QUINCY         LGT RAIN  52  51  97 NE15      29.60F
GALESBURG*     LGT RAIN  48  47  99 NE13      29.71F
MACOMB*        RAIN      49  49 100 NE16      29.71F
JACKSONVILLE*  LGT RAIN  62  61  96 SE5       29.65F
PITTSFIELD*    CLOUDY    63  62  97 SE13      29.63S
$$

ILZ028>032-037-038-041>044-048-051>054-059>061-302000-
CENTRAL ILLINOIS

CITY           SKY/WX    TMP DP  RH WIND       PRES   REMARKS
PONTIAC        CLOUDY    52  51  97 NE15      29.75F FOG
BLOOMINGTON    LGT RAIN  56  56 100 NE8       29.74R FOG
DECATUR        RAIN      64  64 100 S14G22    29.73S FOG
PEORIA         LGT RAIN  50  50 100 NE10      29.73R FOG
LACON*         CLOUDY    49  48  95 NE7G16    29.74S
LINCOLN*       LGT RAIN  61  61 100 E3        29.69F
SPRINGFIELD    LGT RAIN  65  62  90 SE14      29.66F
TAYLORVILLE    RAIN      63  63  99 SE14      29.70F
$$

ILZ033-039-045-046-055>057-062-063-302000-
EAST-CENTRAL ILLINOIS

CITY           SKY/WX    TMP DP  RH WIND       PRES   REMARKS
CHAMPAIGN      LGT RAIN  66  63  90 S21       29.73F
RANTOUL*       DRIZZLE   67  65  94 S20G25    29.73F
MATTOON        LGT RAIN  65  64  97 S12       29.73F
PARIS*         LGT RAIN N/A N/A N/A S14       29.78F
$$

ILZ079-100>102-302000-
SOUTHWEST ILLINOIS

CITY           SKY/WX    TMP DP  RH WIND       PRES   REMARKS
ALTON          LGT RAIN  63  63 100 E12       29.65F
BELLEVILLE     PTSUNNY   66  66 100 E14       29.63F
CAHOKIA*       CLOUDY    68  64  87 SE13G23   29.61F
$$

ILZ064>066-069>071-074>076-080>082-084>086-088>090-092>094-302000-
SOUTH-CENTRAL ILLINOIS

CITY           SKY/WX    TMP DP  RH WIND       PRES   REMARKS
CARBONDALE     LGT RAIN  67  67 100 SE7       29.68F
CAIRO*         LGT RAIN  70  68  93 SE20G28   29.62F
EFFINGHAM*     LGT RAIN  65  65 100 E13       29.72F
MARION         CLOUDY    70  70 100 SE9       29.70R
MT. VERNON     CLOUDY    68  66  93 E10       29.69F
CENTRALIA*     LGT RAIN  67  66  97 SE8       29.67F
SALEM*         LGT RAIN  67  64  93 SE7G16    29.68F
METROPOLIS*    RAIN      72  68  89 S16G30    29.73R
$$

ILZ067-068-072-073-078-083-087-091-302000-
SOUTHEAST ILLINOIS

CITY           SKY/WX    TMP DP  RH WIND       PRES   REMARKS
LAWRENCEVILLE  CLOUDY    66  65  96 E13       29.78F
FLORA*         LGT RAIN  67  66  96 SE12      29.72F
FAIRFIELD*     CLOUDY    66  66 100 E8        29.71F
HARRISBURG*    CLOUDY    69  67  94 SE15      29.70F
ROBINSON*      LGT RAIN  65  64  97 SE9       29.78F
CARMI*         CLOUDY    69  67  93 SE13      29.74F
$$

ABBREVIATIONS USED IN REMARKS
   TC - TEMPERATURE IN CELSIUS
  WCI - WIND CHILL INDEX
   HX - HEAT INDEX
  VSB - VISIBILITY
$$





USA.gov is the U.S. government's official web portal to all federal, state and local government web resources and services.